Location: Capelle
(50.3413°N, 1.9974°E)
Time: 19:33:38
(UTC+00:00)

Resurs 01 Rocket - Pass Details

Date: 17 April 2026
Orbit: 626 x 636 km, 97.7° (Epoch: 12 May)

Event Time Altitude Azimuth Distance (km) Brightness Sun altitude
Rises 19:29:46 0° 196° (SSW) 2,910 4.9 -6.8°
Reaches altitude 10° 19:32:15 10° 208° (SSW) 2,006 4.2 -7.1°
Maximum altitude 19:35:57 27° 266° (W) 1,230 3.9 -7.6°
Drops below altitude 10° 19:39:40 10° 324° (NW) 2,016 5.3 -8.2°
Sets 19:42:10 0° 337° (NNW) 2,927 5.9 -8.5°
